Location: Hokitika
(42.7170°S, 170.9670°E)
Time: 05:27:29
(UTC+12:00)

Daily predictions for brighter satellites

Satellite Brightness Start Highest point End
(mag) Time Altitude Azimuth Time Altitude Azimuth Time Altitude Azimuth
Cosmos 2369 Rocket 3.8 04:06:05 30° SE 04:06:12 30° SE 04:11:09 10° ENE
SL-16 R/B 4.0 04:15:46 23° SSE 04:15:46 23° SSE 04:17:51 10° SSE
Cosmos 1943 Rocket 3.7 04:17:46 31° ENE 04:17:46 31° ENE 04:20:50 10° NE
Cosmos 1745 Rocket 4.4 04:28:24 57° ENE 04:28:51 59° E 04:34:57 10° SSE
H-2A R/B 3.7 04:36:39 10° SSE 04:40:19 33° E 04:40:19 33° E
Okean O Rocket 4.3 04:41:46 10° ENE 04:44:46 18° ESE 04:47:48 10° SSE
Cosmos 1603 4.1 04:51:37 51° NNE 04:52:42 61° ENE 04:58:17 10° SSE
Nadezhda 1 Rocket 4.0 04:46:21 10° S 04:52:46 86° E 04:59:11 10° N
Gbstr 26 Del rocket 4.4 04:53:41 55° SW 04:55:33 77° SSE 05:03:41 10° ENE
Cosmos 1607 3.8 05:03:26 73° W 05:03:46 74° SW 05:10:03 10° SSE
USA 234 3.5 04:58:14 10° SE 05:04:34 49° SSW 05:05:11 48° SW
Cosmos 1709 Rocket 4.3 05:02:32 10° N 05:08:38 67° E 05:14:51 10° SSE
Lacrosse 5 3.7 05:11:00 19° S 05:11:00 19° S 05:14:18 10° SSE
Cosmos 1943 3.3 05:08:58 33° N 05:11:37 73° ENE 05:17:22 10° SSE
Cosmos 304 Rocket 3.8 05:15:51 39° S 05:17:40 77° ESE 05:22:31 10° NNE
Cosmos 2221 3.8 05:13:44 10° S 05:18:00 42° ESE 05:22:12 10° NNE
Cosmos 1452 Rocket 3.4 05:16:25 34° SSW 05:18:50 89° W 05:24:09 10° NNE
BREEZE-M DEB (TANK) 3.6 05:19:50 43° NNE 05:19:54 43° NNE 05:22:19 10° ESE
USA 276 3.6 05:22:50 37° ESE 05:22:50 37° ESE 05:24:58 10° ESE
CZ-4B R/B 3.6 05:19:15 10° SE 05:22:22 28° E 05:25:25 10° NNE
CZ-3 R/B 3.9 05:11:15 22° NW 05:23:55 39° N 05:31:19 10° ENE
X-37B 2.6 05:24:29 25° NE 05:24:29 25° NE 05:27:10 10° E
SL-8 R/B 4.2 05:29:07 42° SSW 05:30:13 51° SSE 05:34:56 10° E
MOS 1-B 4.2 05:28:59 10° N 05:34:48 78° WNW 05:40:41 10° SSW
Cosmos 1656 Rocket 3.8 05:29:30 10° SSW 05:35:11 74° ESE 05:40:44 10° NNE
Cosmos 2058 3.6 05:36:42 10° N 05:40:51 56° E 05:45:02 10° SSE
CZ-4B DEB 4.2 05:36:32 10° N 05:42:05 67° WNW 05:47:43 10° SSW
ARGOS Delta rocket 4.1 05:42:28 10° NNE 05:46:50 63° ESE 05:51:21 10° S
Cosmos 2369 Rocket 2.5 05:47:58 29° SW 05:50:22 44° WNW 05:55:41 10° N
CZ-4B R/B 3.3 05:45:15 10° NNE 05:50:58 89° ESE 05:56:41 10° SSW
ASTEX 1 3.8 05:47:35 10° NNW 05:52:15 39° W 05:57:00 10° SSW
Cosmos 1408 3.2 05:52:20 10° N 05:55:56 58° E 05:59:34 10° SSE
SL-16 R/B 3.9 05:57:40 15° SW 05:57:40 15° SW 06:00:23 10° S
Cosmos 724 4.3 05:51:17 11° NW 05:57:12 74° SW 06:03:24 10° SSE
Meteor 1-27 4.5 05:52:38 10° SSW 05:57:58 44° W 06:03:18 10° NNW
H-2A R/B 4.0 05:54:43 10° NNW 05:56:25 20° NW 05:56:25 20° NW
Cosmos 1892 2.5 05:54:51 10° NNW 05:58:39 76° W 06:02:30 10° S
Cosmos 1943 Rocket 3.2 05:59:23 24° WNW 05:59:23 24° WNW 06:03:15 10° NNW
PAYLOAD B 4.3 05:53:35 10° N 05:59:05 57° WNW 06:04:41 10° SSW
Cosmos 1842 Rocket 3.6 05:55:11 10° SSW 05:59:36 58° W 06:03:54 10° N
H-2A R/B 2.9 05:57:16 10° N 06:00:57 48° W 06:04:23 12° SSW
Cosmos 2181 Rocket 4.0 05:54:31 10° S 06:01:03 75° W 06:07:28 10° N
Cosmos 1048 Rocket 4.2 05:57:55 14° NW 06:02:26 49° WSW 06:07:43 10° S
ERS-2 2.8 06:01:10 10° S 06:04:33 33° WSW 06:04:40 33° WSW
ATLAS 5 CENTAUR R/B 3.8 06:01:16 10° SSW 06:05:56 26° SE 06:10:00 10° E
Cosmos 2263 4.5 06:01:49 14° SW 06:06:24 45° WNW 06:11:43 10° N
SMAP 3.0 06:01:47 10° NNE 06:06:29 88° WNW 06:11:15 10° SSW
Meteor 2-2 Rocket 4.3 06:03:54 10° SSW 06:09:55 65° W 06:15:48 10° N
ERBS 2.8 06:10:50 32° W 06:11:51 42° SW 06:15:09 10° SE
CORIOLIS 4.2 06:06:33 10° NNE 06:11:56 86° ESE 06:17:23 10° SSW
Cosmos 1110 Rocket 3.9 06:09:42 10° SSW 06:14:55 70° WNW 06:20:06 10° N
YAOGAN 6 2.4 06:11:29 10° N 06:15:01 70° W 06:18:39 10° SSW
SAR-Lupe-4 3.5 06:12:37 10° S 06:16:15 62° WSW 06:19:49 10° NNW
H-2A R/B 3.2 06:12:56 10° SSW 06:16:27 23° WSW 06:17:25 22° W
Cosmos 1869 3.9 06:13:56 10° SSW 06:17:32 34° W 06:21:08 10° NNW
ADEOS Rocket 3.3 06:12:15 10° SSE 06:18:40 87° ENE 06:25:45 10° NNW
Okean O Rocket 1.8 06:16:26 10° N 06:20:45 48° W 06:25:07 10° SSW
Envisat 3.1 06:16:15 10° N 06:21:15 56° W 06:26:20 10° SSW
Cosmos 1269 Rocket 4.0 06:18:03 10° NNW 06:23:23 84° WSW 06:28:48 10° SSE
Cosmos 1606 4.3 06:23:15 10° S 06:26:57 38° ESE 06:30:37 10° NNE
Cosmos 2184 Rocket 3.9 06:23:09 10° N 06:29:20 78° W 06:35:37 10° S
USA 81 4.0 06:24:22 10° NNW 06:29:37 65° W 06:34:57 10° S
BREEZE-M DEB (TANK) 4.3 06:28:36 16° W 06:29:44 17° WNW 06:31:44 10° NNW
Cosmos 1302 Rocket 4.3 06:24:28 10° SSW 06:29:50 75° ESE 06:35:07 10° NNE
Cosmos 2074 Rocket 4.0 06:24:12 10° NNW 06:30:30 74° W 06:36:53 10° S
SAR-Lupe-1 4.4 06:27:39 10° S 06:31:09 42° WSW 06:34:37 10° NW
Cosmos 1825 2.1 06:30:34 10° NNW 06:34:21 70° W 06:38:13 10° S
Cosmos 2151 3.1 06:31:08 10° N 06:35:29 83° E 06:39:54 10° S
Helios 1A Rocket 3.2 06:31:39 10° NNE 06:35:50 77° ESE 06:40:04 10° S
Shenzhou-11 Module 1.3 06:34:46 20° W 06:36:12 75° N 06:38:34 10° ENE
Nadezhda 3 Rocket 4.3 06:36:17 10° S 06:42:45 81° E 06:49:10 10° N
IRS-1C Rocket 4.1 06:40:19 10° NNE 06:45:36 83° WNW 06:51:00 10° SSW
USA 234 4.5 06:41:14 10° SE 06:46:36 27° S 06:51:59 10° WSW
FengYun 1-2 T 4.3 06:42:19 10° N 06:47:59 70° WNW 06:53:45 10° SSW
Cosmos 1766 Rocket 4.0 06:44:17 10° N 06:48:36 69° E 06:53:01 10° SSE
Cosmos 1076 Rocket 4.3 06:46:47 10° NW 06:50:40 30° WSW 06:54:35 10° SSW
OE (NEXTSAT) 4.4 06:47:26 11° WSW 06:50:49 82° NNW 06:54:20 10° ENE
YAOGAN 1 3.8 06:48:41 10° NE 06:52:53 47° ESE 06:57:07 10° S
CZ-4B R/B 3.0 06:51:56 10° SSW 06:54:25 18° WSW 06:56:51 10° WNW
Cosmos 2221 4.0 06:52:15 10° SW 06:55:11 17° W 06:58:06 10° NW
Lacrosse 5 3.9 06:51:55 10° SSW 06:55:20 17° S 06:58:45 10° SE
CZ-2D R/B 3.7 06:53:53 10° NNE 06:57:47 68° ESE 07:01:43 10° S
USA 276 3.5 06:55:26 10° WSW 06:58:18 27° SSW 07:01:11 10° SE
PSLV R/B 4.1 06:54:50 10° S 06:59:05 59° WSW 07:03:15 10° NNW
Cosmos 1633 4.4 06:57:00 10° NNE 07:00:25 37° E 07:03:54 10° SSE
BREEZE-M DEB (TANK) 3.6 06:54:52 10° W 07:02:29 37° SSW 07:05:21 10° ESE
